Location: Chomutov
(50.4500°N, 13.4333°E)
Time: 19:05:22
(UTC+02:00)

FO-29 - Pass Details

Date: 29 September 2021
Orbit: 800 x 1321 km, 98.6° (Epoch: 23 October)

Event Time Altitude Azimuth Distance (km) Brightness Sun altitude
Exits shadow 22:46:24 29° 229° (SW) 2,188 11.2 -35.0°
Maximum altitude 22:49:12 38° 268° (W) 1,923 11.2 -35.3°
Drops below altitude 10° 22:56:24 10° 334° (NNW) 3,350 13.0 -36.0°
Sets 22:59:24 0° 342° (NNW) 4,300 13.7 -36.3°
